Mason, MI

2:09 AM EDT on July 22, 2017 (GMT -0400)
Mason Jewett

Weather History for KTEW - October, 2012

Change the Weather History Date:

Monday, October 1, 2012

  Actual Average (KLAN) Record (KLAN)
Temperature  
Mean Temperature 52 °F -  
Max Temperature 66 °F 67 °F 89 °F (1897)
Min Temperature 37 °F 43 °F 27 °F (1960)
Degree Days  
Heating Degree Days 14    
Growing Degree Days 2 (Base 50)    
Moisture  
Dew Point 43 °F    
Average Humidity 73    
Maximum Humidity 97    
Minimum Humidity 42    
Precipitation  
Precipitation 0.00 in - - ()
Sea Level Pressure  
Sea Level Pressure 29.91 in    
Wind  
Wind Speed 1 mph (ESE)    
Max Wind Speed 6 mph    
Max Gust Speed -    
Visibility 8 miles    
Events Fog    
Averages and records for this station are not official NWS values.
T = Trace of Precipitation, MM = Missing Value Source: NWS Daily Summary

Daily Weather History Graph

Daily Weather History Graph

Search for Another Location

Airport or City:

Trip Planner

Search our weather history database for the weather conditions in past years. The results will help you decide how hot, cold, wet, or windy it might be!

Date:

Astronomy

Oct. 01, 2012 Rise Set
Actual Time 7:35 AM EDT 7:18 PM EDT
Civil Twilight 7:07 AM EDT 7:46 PM EDT
Nautical Twilight 6:34 AM EDT 8:18 PM EDT
Astronomical Twilight 6:01 AM EDT 8:51 PM EDT
Moon 7:51 PM EDT (10/1) 9:07 AM EDT (10/1)
Length of Visible Light 12h 39m
Length of Day
11h 42m
Full, 98% of the Moon is Illuminated
Oct 1
Full
Oct 8
Last Quarter
Oct 15
New
Oct 21
First Quarter
Oct 29
Full

Hourly Weather History & Observations

Time (EDT) Temp. Dew Point Humidity Pressure Visibility Wind Dir Wind Speed Gust Speed Precip Events Conditions
12:12 AM 48.9 °F 46.8 °F 92% 29.94 in 10.0 mi Calm Calm - N/A   Clear
12:33 AM 47.5 °F 44.8 °F 90% 29.95 in 10.0 mi Calm Calm - N/A   Clear
12:52 AM 45.9 °F 43.7 °F 92% 29.95 in 10.0 mi Calm Calm - N/A   Clear
1:12 AM 45.9 °F 43.9 °F 93% 29.95 in 10.0 mi Calm Calm - N/A   Clear
1:33 AM 45.9 °F 43.9 °F 93% 29.95 in 10.0 mi Calm Calm - N/A   Clear
1:52 AM 45.5 °F 43.7 °F 93% 29.94 in 10.0 mi Calm Calm - N/A   Clear
2:12 AM 43.5 °F 41.7 °F 93% 29.94 in 10.0 mi Calm Calm - N/A   Clear
2:33 AM 43.3 °F 41.9 °F 95% 29.94 in - Calm Calm - N/A   Unknown
2:52 AM 42.8 °F 41.4 °F 95% 29.94 in 0.5 mi Calm Calm - N/A Fog Fog
3:12 AM 41.7 °F 40.3 °F 95% 29.94 in 0.5 mi Calm Calm - N/A Fog Fog
3:33 AM 41.4 °F 40.1 °F 95% 29.94 in 0.5 mi Calm Calm - N/A Fog Fog
4:12 AM 41.0 °F 39.7 °F 95% 29.93 in 0.8 mi Calm Calm - N/A   Overcast
4:33 AM 39.6 °F 38.5 °F 96% 29.93 in 0.8 mi Calm Calm - N/A   Overcast
4:52 AM 40.6 °F 39.6 °F 96% 29.93 in 0.8 mi Calm Calm - N/A   Overcast
5:12 AM 39.7 °F 38.7 °F 96% 29.94 in 0.8 mi Calm Calm - N/A   Overcast
5:52 AM 39.2 °F 38.3 °F 97% 29.94 in 0.5 mi Calm Calm - N/A Fog Fog
6:12 AM 38.5 °F 37.6 °F 97% 29.94 in 0.8 mi Calm Calm - N/A   Overcast
6:32 AM 38.3 °F 37.4 °F 97% 29.94 in 0.5 mi Calm Calm - N/A Fog Fog
6:52 AM 38.8 °F 37.8 °F 96% 29.94 in 0.5 mi Calm Calm - N/A Fog Fog
7:12 AM 38.5 °F 37.6 °F 97% 29.95 in 0.8 mi Calm Calm - N/A   Overcast
7:32 AM 38.3 °F 37.4 °F 97% 29.95 in 0.2 mi Calm Calm - N/A Fog Fog
7:52 AM 37.8 °F 36.9 °F 97% 29.95 in 0.2 mi Calm Calm - N/A Fog Fog
8:13 AM 38.8 °F 37.9 °F 97% 29.95 in 0.2 mi Calm Calm - N/A Fog Fog
8:32 AM 41.7 °F 40.5 °F 95% 29.95 in 1.2 mi Calm Calm - N/A   Overcast
8:52 AM 43.7 °F 42.6 °F 96% 29.96 in 0.5 mi Calm Calm - N/A Fog Fog
9:13 AM 47.1 °F 46.0 °F 96% 29.96 in 7.0 mi Calm Calm - N/A   Scattered Clouds
9:32 AM 49.3 °F 48.2 °F 96% 29.96 in 10.0 mi Calm Calm - N/A   Clear
9:52 AM 51.6 °F 50.2 °F 95% 29.96 in 10.0 mi Calm Calm - N/A   Clear
10:13 AM 54.5 °F 49.5 °F 83% 29.95 in 10.0 mi Calm Calm - N/A   Clear
10:32 AM 57.0 °F 49.6 °F 76% 29.95 in 10.0 mi Calm Calm - N/A   Clear
10:52 AM 59.2 °F 46.0 °F 62% 29.95 in 10.0 mi Calm Calm - N/A   Clear
11:13 AM 61.9 °F 45.7 °F 55% 29.95 in 10.0 mi East 3.5 mph - N/A   Clear
11:32 AM 61.5 °F 44.8 °F 54% 29.94 in 10.0 mi Calm Calm - N/A   Clear
11:52 AM 62.6 °F 43.9 °F 50% 29.94 in 10.0 mi Calm Calm - N/A   Clear
12:13 PM 62.2 °F 42.8 °F 49% 29.93 in 10.0 mi South 3.5 mph - N/A   Clear
12:32 PM 62.8 °F 42.3 °F 47% 29.93 in 10.0 mi SSE 3.5 mph - N/A   Clear
12:52 PM 63.1 °F 43.2 °F 48% 29.92 in 10.0 mi ENE 3.5 mph - N/A   Clear
1:13 PM 63.9 °F 43.0 °F 47% 29.91 in 10.0 mi Calm Calm - N/A   Clear
1:32 PM 65.5 °F 42.4 °F 43% 29.91 in 10.0 mi SE 4.6 mph - N/A   Clear
1:52 PM 64.9 °F 42.6 °F 44% 29.90 in 10.0 mi South 4.6 mph - N/A   Clear
2:13 PM 65.8 °F 42.4 °F 43% 29.89 in 10.0 mi NNE 3.5 mph - N/A   Clear
2:32 PM 64.9 °F 42.1 °F 43% 29.89 in 10.0 mi East 3.5 mph - N/A   Clear
2:52 PM 64.9 °F 41.7 °F 43% 29.88 in 10.0 mi Calm Calm - N/A   Clear
3:13 PM 65.7 °F 42.3 °F 43% 29.87 in 10.0 mi Calm Calm - N/A   Clear
3:53 PM 65.3 °F 42.1 °F 43% 29.88 in 10.0 mi East 5.8 mph - N/A   Clear
4:13 PM 66.2 °F 42.3 °F 42% 29.87 in 10.0 mi Calm Calm - N/A   Clear
4:32 PM 65.5 °F 42.8 °F 44% 29.86 in 10.0 mi ENE 3.5 mph - N/A   Clear
4:53 PM 65.3 °F 43.3 °F 45% 29.86 in 10.0 mi SE 5.8 mph - N/A   Clear
5:13 PM 65.3 °F 43.0 °F 44% 29.86 in 10.0 mi ESE 5.8 mph - N/A   Clear
5:32 PM 64.6 °F 43.2 °F 46% 29.86 in 10.0 mi East 4.6 mph - N/A   Clear
5:53 PM 64.2 °F 43.0 °F 46% 29.86 in 10.0 mi Calm Calm - N/A   Clear
6:13 PM 63.7 °F 43.9 °F 48% 29.87 in 10.0 mi Calm Calm - N/A   Clear
6:32 PM 63.3 °F 44.2 °F 50% 29.86 in 10.0 mi Calm Calm - N/A   Clear
7:13 PM 61.0 °F 46.8 °F 59% 29.86 in 10.0 mi Calm Calm - N/A   Clear
7:32 PM 59.9 °F 46.6 °F 61% 29.86 in 10.0 mi Calm Calm - N/A   Clear
7:53 PM 58.1 °F 47.3 °F 67% 29.86 in 10.0 mi Calm Calm - N/A   Clear
8:13 PM 57.9 °F 46.8 °F 66% 29.86 in 10.0 mi Calm Calm - N/A   Clear
8:32 PM 56.1 °F 47.5 °F 73% 29.86 in 10.0 mi Calm Calm - N/A   Clear
8:53 PM 55.8 °F 47.7 °F 74% 29.86 in 10.0 mi Calm Calm - N/A   Clear
9:13 PM 54.9 °F 47.8 °F 77% 29.86 in 10.0 mi Calm Calm - N/A   Clear
9:33 PM 55.4 °F 47.7 °F 75% 29.87 in 10.0 mi Calm Calm - N/A   Clear
9:53 PM 54.5 °F 48.2 °F 79% 29.87 in 10.0 mi Calm Calm - N/A   Clear
10:12 PM 55.0 °F 47.5 °F 76% 29.88 in 10.0 mi Calm Calm - N/A   Clear
10:33 PM 54.1 °F 48.0 °F 80% 29.87 in 10.0 mi Calm Calm - N/A   Clear
10:53 PM 54.1 °F 47.5 °F 78% 29.87 in 10.0 mi Calm Calm - N/A   Clear
11:12 PM 54.0 °F 47.7 °F 79% 29.87 in 10.0 mi Calm Calm - N/A   Clear
11:33 PM 53.8 °F 47.7 °F 80% 29.87 in 10.0 mi Calm Calm - N/A   Clear